Home   Weather   Iași   Past weeks

Flag for Romania Past Weather in Iași, Romania — Yesterday and Last 2 Weeks

Now
86 °F

Sunny.


Feels Like: 86 °F
Forecast: 68 / 92 °F
Wind: 15 mph from South

Location: Iasi Airport

Current Time: Jun 29, 2017 at 11:52:04 am

Latest Report: Jun 29, 2017 at 11:00 am


Visibility: 10 mi

Pressure: 29.77 "Hg

Humidity: 43%

Dew Point: 61 °F

Location of IașiLocation

Past Weather in Iași — Graph

°F

Iași Temperature Yesterday

Maximum temperature yesterday: 88 °F (at 5:00 pm)
Minimum temperature yesterday: 63 °F (at 4:00 am)
Average temperature yesterday: 76 °F

High & Low Weather Summary for the Past Weeks

 TemperatureHumidityPressure
High90 °F (Jun 26, 3:00 pm)88% (Jun 18, 5:00 am)30.07 "Hg (Jun 18, 5:00 am)
Low52 °F (Jun 16, 5:00 am)26% (Jun 16, 6:00 pm)29.71 "Hg (Jun 23, 6:00 pm)
Average71 °F58%29.91 "Hg
* Reported Jun 14 10:00 am — Jun 29 10:30 am, Iași. Weather by CustomWeather, © 2017

Note: Actual official high and low records may vary slightly from our data, if they occured in-between our weather recording intervals... More about our weather records

Advertising

Iași Weather History for the Previous 24 Hours

Scroll right to see more
 ConditionsComfort  
Time TempWeatherWind HumidityBarometerVisibility
10:30 am
Thu, Jun 29
84 °FSunny.12 mph45%29.77 "Hg10 mi
10:00 am84 °FSunny.12 mph48%29.77 "Hg10 mi
9:30 am82 °FSunny.13 mph55%29.77 "Hg10 mi
9:00 am81 °FSunny.10 mph54%29.77 "Hg10 mi
8:30 am77 °FSunny.9 mph61%29.77 "Hg10 mi
8:00 am75 °FSunny.9 mph65%29.77 "Hg10 mi
7:30 am73 °FSunny.9 mph65%29.77 "Hg10 mi
7:00 am72 °FSunny.8 mph69%29.77 "Hg10 mi
6:30 am70 °FSunny.9 mph73%29.77 "Hg10 mi
5:30 am68 °FSunny.7 mph73%29.77 "Hg10 mi
5:00 am68 °FClear.7 mph73%29.77 "Hg10 mi
4:30 am70 °FClear.7 mph69%29.77 "Hg10 mi
4:00 am70 °FClear.9 mph64%29.77 "Hg10 mi
3:30 am70 °FClear.8 mph64%29.77 "Hg10 mi
3:00 am73 °FPassing clouds.3 mph57%29.77 "HgN/A
2:30 am72 °FPassing clouds.5 mph61%29.77 "HgN/A
2:00 am73 °FClear.6 mph57%29.80 "Hg10 mi
1:30 am75 °FClear.3 mph54%29.80 "Hg10 mi
1:00 am75 °FClear.3 mph54%29.80 "Hg10 mi
12:30 am75 °FClear.5 mph54%29.80 "Hg10 mi
12:00 am75 °FClear.3 mph54%29.80 "Hg10 mi
11:30 pm
Wed, Jun 28
75 °FClear.5 mph54%29.80 "Hg10 mi
11:00 pm77 °FClear.6 mph51%29.80 "Hg10 mi
10:00 pm77 °FClear.6 mph54%29.80 "Hg10 mi
9:30 pm79 °FClear.7 mph48%29.80 "Hg10 mi
9:00 pm81 °FSunny.7 mph45%29.80 "Hg10 mi
8:30 pm82 °FSunny.8 mph42%29.80 "Hg10 mi
8:00 pm84 °FSunny.8 mph40%29.77 "Hg10 mi
7:30 pm84 °FSunny.7 mph37%29.80 "Hg10 mi
7:00 pm86 °FSunny.7 mph35%29.80 "Hg10 mi
6:30 pm86 °FPassing clouds.7 mph38%29.80 "HgN/A
6:00 pm86 °FPassing clouds.6 mph35%29.80 "HgN/A
5:30 pm86 °FPassing clouds.7 mph35%29.83 "HgN/A
5:00 pm88 °FPassing clouds.9 mph33%29.83 "HgN/A
4:30 pm86 °FClear.7 mph35%29.83 "HgN/A
3:30 pm86 °FSunny.8 mph35%29.86 "Hg10 mi
3:00 pm86 °FPassing clouds.7 mph38%29.86 "HgN/A
2:30 pm86 °FPassing clouds.8 mph33%29.86 "HgN/A
2:00 pm84 °FPassing clouds.9 mph35%29.86 "HgN/A
12:30 pm82 °FPassing clouds.8 mph40%29.89 "HgN/A
11:30 am82 °FPassing clouds.5 mph42%29.89 "HgN/A
11:00 am81 °FPassing clouds.7 mph48%29.92 "HgN/A
Weather by CustomWeather, © 2017

See weather overviewHow to use our weather pages